Akron Canton, OH

6:13 AM EDT on June 28, 2017 (GMT -0400)
Akron-Canton Regional

Weather History for KCAK - August, 1958

Change the Weather History Date:

Friday, August 8, 1958

  Actual Average Record
Temperature  
Mean Temperature 72 °F 71 °F  
Max Temperature 80 °F 81 °F 98 °F (1931)
Min Temperature 64 °F 62 °F 48 °F (1922)
Degree Days  
Heating Degree Days 0 0  
Month to date heating degree days 0  
Since 1 June heating degree days 55  
Since 1 July heating degree days 6  
Cooling Degree Days 7 7  
Month to date cooling degree days 56  
Year to date cooling degree days 455  
Since 1 June cooling degree days 413  
Growing Degree Days 22 (Base 50)    
Moisture  
Dew Point 63 °F    
Average Humidity 81    
Maximum Humidity 97    
Minimum Humidity 54    
Precipitation  
Precipitation 0.00 in 0.12 in 1.17 in (1992)
Month to date precipitation 0.97  
Year to date precipitation 24.61  
Snow  
Snow 0.00 in 0.00 in - ()
Month to date snowfall 0.0  
Since 1 June snowfall 0.0  
Since 1 July snowfall 0.0  
Snow Depth -    
Sea Level Pressure  
Sea Level Pressure 29.94 in    
Wind  
Wind Speed 9 mph (NW)    
Max Wind Speed 17 mph    
Max Gust Speed -    
Visibility 8 miles    
Events Fog    
T = Trace of Precipitation, MM = Missing Value Source: NWS Daily Summary

Daily Weather History Graph

Daily Weather History Graph

Search for Another Location

Airport or City:

Trip Planner

Search our weather history database for the weather conditions in past years. The results will help you decide how hot, cold, wet, or windy it might be!

Date:

Astronomy

Aug. 08, 1958 Rise Set
Actual Time 6:28 AM EDT 8:33 PM EDT
Civil Twilight 5:57 AM EDT 9:03 PM EDT
Nautical Twilight 5:20 AM EDT 9:40 PM EDT
Astronomical Twilight 4:40 AM EDT 10:21 PM EDT
Moon 12:38 AM EDT (8/8) 3:01 PM EDT (8/8)
Length of Visible Light 15h 06m
Length of Day
14h 05m
Last Quarter, 41% of the Moon is Illuminated
Aug 8
Last Quarter
Aug 14
New
Aug 21
First Quarter
Aug 29
Full
Sep 6
Last Quarter

Hourly Weather History & Observations

Time (EDT) Temp. Heat Index Dew Point Humidity Pressure Visibility Wind Dir Wind Speed Gust Speed Precip Events Conditions
12:00 AM 66.9 °F - 66.0 °F 97% 29.88 in 7.0 mi SW 9.2 mph - N/A   Unknown
1:00 AM 66.9 °F - 64.9 °F 93% 29.89 in 7.0 mi SW 8.1 mph - N/A   Unknown
2:00 AM 66.0 °F - 64.0 °F 93% 29.89 in 7.0 mi SW 5.8 mph - N/A   Clear
3:00 AM 64.9 °F - 64.0 °F 97% 29.88 in 6.0 mi Calm Calm - N/A Fog Fog
4:00 AM 64.9 °F - 63.0 °F 93% 29.88 in 6.0 mi SW 4.6 mph - N/A Fog Fog
5:00 AM 64.9 °F - 64.0 °F 97% 29.88 in 6.0 mi SW 5.8 mph - N/A Fog Fog
6:00 AM 66.0 °F - 64.9 °F 96% 29.89 in 3.0 mi WSW 4.6 mph - N/A Fog Fog
7:00 AM 66.0 °F - 64.9 °F 96% 29.91 in 3.0 mi West 5.8 mph - N/A Fog Fog
8:00 AM 66.9 °F - 66.0 °F 97% 29.92 in 3.0 mi West 8.1 mph - N/A Fog Fog
9:00 AM 68.0 °F - 66.0 °F 93% 29.94 in 3.0 mi West 8.1 mph - N/A Fog Fog
10:00 AM 70.0 °F - 68.0 °F 93% 29.94 in 2.0 mi NW 11.5 mph - N/A   Smoke
11:00 AM 72.0 °F - 66.9 °F 84% 29.96 in 4.0 mi NW 12.7 mph - N/A   Smoke
12:00 PM 72.0 °F - 66.0 °F 81% 29.97 in 5.0 mi NW 10.4 mph - N/A   Smoke
1:00 PM 77.0 °F - 64.0 °F 64% 29.96 in 6.0 mi NW 17.3 mph - N/A   Smoke
2:00 PM 78.1 °F - 63.0 °F 60% 29.96 in 8.0 mi NNW 11.5 mph - N/A   Unknown
3:00 PM 79.0 °F - 61.0 °F 54% 29.96 in 10.0 mi NW 13.8 mph - N/A   Unknown
4:00 PM 80.1 °F 81.2 °F 62.1 °F 54% 29.96 in 10.0 mi NNW 15.0 mph - N/A   Unknown
5:00 PM 78.1 °F - 61.0 °F 56% 29.97 in 15.0 mi NNW 17.3 mph - N/A   Unknown
6:00 PM 77.0 °F - 62.1 °F 60% 29.97 in 15.0 mi North 17.3 mph - N/A   Unknown
7:00 PM 75.9 °F - 57.9 °F 54% 29.98 in 15.0 mi North 11.5 mph - N/A   Clear
8:00 PM 72.0 °F - 60.1 °F 66% 30.00 in 15.0 mi North 6.9 mph - N/A   Clear
9:00 PM 66.9 °F - 61.0 °F 81% 30.00 in 15.0 mi North 5.8 mph - N/A   Clear
10:00 PM 66.0 °F - 61.0 °F 84% 30.04 in 10.0 mi North 9.2 mph - N/A   Clear
11:00 PM 64.9 °F - 62.1 °F 90% 30.05 in 10.0 mi NNE 8.1 mph - N/A   Clear